When you browse on this site, cookies collect data to enhance your experience and personalize the content and advertising you see.
Visit our Privacy Policy to learn more. By continuing to use the site, you agree to this use of cookies and data.
  • In Germany
  • List of Countries
  • For 7 days
  • Water Temperature
  • Weather Map
  • Weather Widgets
  • user-avatar
    Login

    Hourly Weather Lubango

    Today, 9 December, Monday

    Time Temperature Precipitation Wind Pressure Humidity
    00:00 +14°C° 0 mm 1 mps 606 mmHg 63%
    01:00 +13°C° 0 mm 1 mps 606 mmHg 64%
    02:00 +13°C° 0 mm 1 mps 606 mmHg 64%
    03:00 +13°C° 0 mm 1 mps 605 mmHg 63%
    04:00 +12°C° 0 mm 1 mps 605 mmHg 62%
    05:00 +13°C° 0 mm 1 mps 606 mmHg 61%
    06:00 +14°C° 0 mm 1 mps 607 mmHg 59%
    07:00 +15°C° 0 mm 1 mps 608 mmHg 57%
    08:00 +18°C° 0 mm 1 mps 608 mmHg 50%
    09:00 +19°C° 0 mm 2 mps 609 mmHg 42%
    10:00 +21°C° 0 mm 2 mps 610 mmHg 35%
    11:00 +22°C° 0 mm 3 mps 610 mmHg 33%
    12:00 +22°C° 0 mm 3 mps 609 mmHg 32%
    13:00 +24°C° 0 mm 3 mps 609 mmHg 30%
    14:00 +23°C° 0 mm 4 mps 609 mmHg 31%
    15:00 +22°C° 0 mm 4 mps 608 mmHg 33%
    16:00 +22°C° 0 mm 4 mps 607 mmHg 34%
    17:00 +20°C° 0 mm 3 mps 607 mmHg 42%
    18:00 +18°C° 0 mm 2 mps 606 mmHg 51%
    19:00 +15°C° 0 mm 2 mps 606 mmHg 59%
    20:00 +15°C° 0 mm 1 mps 606 mmHg 59%
    21:00 +14°C° 0 mm 1 mps 606 mmHg 60%
    22:00 +13°C° 0 mm 1 mps 607 mmHg 60%
    23:00 +13°C° 0 mm 1 mps 606 mmHg 62%

    Tomorrow, 10 December, Tuesday

    Time Temperature Precipitation Wind Pressure Humidity
    00:00 +12°C° 0 mm 1 mps 606 mmHg 64%
    01:00 +12°C° 0 mm 1 mps 606 mmHg 66%
    02:00 +11°C° 0 mm 1 mps 605 mmHg 67%
    03:00 +11°C° 0 mm 1 mps 605 mmHg 67%
    04:00 +11°C° 0 mm 1 mps 605 mmHg 68%
    05:00 +12°C° 0 mm 1 mps 606 mmHg 64%
    06:00 +13°C° 0 mm 1 mps 606 mmHg 61%
    07:00 +14°C° 0 mm 1 mps 607 mmHg 58%
    08:00 +16°C° 0 mm 1 mps 608 mmHg 50%
    09:00 +19°C° 0 mm 2 mps 609 mmHg 42%
    10:00 +21°C° 0 mm 2 mps 610 mmHg 34%
    11:00 +22°C° 0 mm 3 mps 609 mmHg 34%
    12:00 +22°C° 0 mm 3 mps 609 mmHg 33%
    13:00 +24°C° 0 mm 3 mps 609 mmHg 33%
    14:00 +24°C° 0 mm 3 mps 609 mmHg 34%
    15:00 +22°C° 0 mm 3 mps 608 mmHg 36%
    16:00 +22°C° 0 mm 3 mps 608 mmHg 38%
    17:00 +20°C° 0 mm 3 mps 607 mmHg 50%
    18:00 +17°C° 0 mm 2 mps 607 mmHg 63%
    19:00 +15°C° 0 mm 2 mps 606 mmHg 76%
    20:00 +14°C° 0 mm 1 mps 606 mmHg 80%
    21:00 +14°C° 0 mm 1 mps 607 mmHg 84%
    22:00 +13°C° 0 mm 1 mps 607 mmHg 88%
    23:00 +13°C° 0 mm 1 mps 607 mmHg 86%

    Day after tomorrow, 11 December, Wednesday

    Time Temperature Precipitation Wind Pressure Humidity
    00:00 +13°C° 0 mm 1 mps 606 mmHg 84%
    01:00 +12°C° 0 mm 1 mps 606 mmHg 82%
    02:00 +12°C° 0 mm 1 mps 606 mmHg 81%
    03:00 +12°C° 0 mm 1 mps 606 mmHg 80%
    04:00 +12°C° 0 mm 1 mps 605 mmHg 79%
    05:00 +13°C° 0 mm 1 mps 606 mmHg 72%
    06:00 +14°C° 0 mm 1 mps 607 mmHg 66%
    07:00 +15°C° 0 mm 1 mps 608 mmHg 60%
    08:00 +17°C° 0 mm 2 mps 609 mmHg 52%
    09:00 +20°C° 0 mm 2 mps 609 mmHg 43%
    10:00 +23°C° 0 mm 2 mps 610 mmHg 34%
    11:00 +24°C° 0 mm 3 mps 610 mmHg 32%
    12:00 +24°C° 0 mm 3 mps 610 mmHg 30%
    13:00 +25°C° 0 mm 3 mps 610 mmHg 28%
    14:00 +25°C° 0 mm 3 mps 609 mmHg 30%
    15:00 +24°C° 0 mm 3 mps 609 mmHg 31%
    16:00 +24°C° 0 mm 3 mps 608 mmHg 33%
    17:00 +21°C° 0 mm 2 mps 608 mmHg 44%
    18:00 +18°C° 0 mm 2 mps 607 mmHg 55%
    19:00 +16°C° 0 mm 1 mps 607 mmHg 67%
    20:00 +15°C° 0 mm 1 mps 607 mmHg 70%
    21:00 +15°C° 0 mm 1 mps 607 mmHg 74%
    22:00 +14°C° 0 mm 1 mps 607 mmHg 78%
    23:00 +14°C° 0 mm 1 mps 607 mmHg 76%

    12 December, Thursday

    Time Temperature Precipitation Wind Pressure Humidity
    00:00 +14°C° 0 mm 1 mps 607 mmHg 74%
    01:00 +14°C° 0 mm 1 mps 607 mmHg 73%
    02:00 +14°C° 0 mm 1 mps 607 mmHg 70%
    03:00 +14°C° 0 mm 1 mps 607 mmHg 67%
    04:00 +14°C° 0 mm 1 mps 606 mmHg 64%
    05:00 +15°C° 0 mm 1 mps 607 mmHg 59%
    06:00 +16°C° 0 mm 1 mps 608 mmHg 54%
    07:00 +18°C° 0 mm 1 mps 609 mmHg 48%
    08:00 +20°C° 0 mm 1 mps 609 mmHg 43%
    09:00 +22°C° 0 mm 1 mps 610 mmHg 37%
    10:00 +24°C° 0 mm 2 mps 611 mmHg 31%
    11:00 +25°C° 0 mm 2 mps 611 mmHg 30%
    12:00 +26°C° 0 mm 2 mps 610 mmHg 29%
    13:00 +27°C° 0 mm 2 mps 610 mmHg 28%
    14:00 +27°C° 0 mm 2 mps 610 mmHg 29%
    15:00 +26°C° 0 mm 2 mps 609 mmHg 29%
    16:00 +26°C° 0 mm 2 mps 609 mmHg 30%
    17:00 +23°C° 0 mm 2 mps 608 mmHg 42%
    18:00 +20°C° 0 mm 2 mps 608 mmHg 53%
    19:00 +17°C° 0 mm 2 mps 607 mmHg 64%
    20:00 +18°C° 0 mm 1 mps 607 mmHg 65%
    21:00 +16°C° 0 mm 1 mps 608 mmHg 65%
    22:00 +15°C° 0 mm 0 mps 608 mmHg 66%
    23:00 +14°C° 0 mm 0 mps 608 mmHg 67%

    13 December, Friday

    Time Temperature Precipitation Wind Pressure Humidity
    00:00 +14°C° 0 mm 0 mps 608 mmHg 68%
    01:00 +14°C° 0 mm 0 mps 607 mmHg 68%
    02:00 +15°C° 0 mm 1 mps 607 mmHg 67%
    03:00 +15°C° 0 mm 1 mps 607 mmHg 65%
    04:00 +15°C° 0 mm 1 mps 607 mmHg 63%
    05:00 +16°C° 0 mm 1 mps 608 mmHg 60%
    06:00 +18°C° 0 mm 1 mps 608 mmHg 57%
    07:00 +19°C° 0 mm 1 mps 609 mmHg 55%
    08:00 +22°C° 0 mm 1 mps 610 mmHg 48%
    09:00 +24°C° 0 mm 2 mps 611 mmHg 42%
    10:00 +26°C° 0 mm 2 mps 611 mmHg 35%
    11:00 +27°C° 0 mm 2 mps 611 mmHg 34%
    12:00 +28°C° 0 mm 2 mps 611 mmHg 32%
    13:00 +29°C° 0 mm 2 mps 611 mmHg 30%
    14:00 +28°C° 0 mm 2 mps 610 mmHg 34%
    15:00 +27°C° 0 mm 2 mps 609 mmHg 38%
    16:00 +25°C° 0 mm 2 mps 608 mmHg 42%
    17:00 +23°C° 0 mm 2 mps 608 mmHg 49%
    18:00 +21°C° 0 mm 2 mps 607 mmHg 56%
    19:00 +19°C° 0 mm 2 mps 607 mmHg 63%
    20:00 +19°C° 0 mm 1 mps 608 mmHg 63%
    21:00 +19°C° 0 mm 1 mps 608 mmHg 63%
    22:00 +19°C° 0 mm 1 mps 609 mmHg 63%
    23:00 +19°C° 0 mm 1 mps 608 mmHg 61%

    14 December, Saturday

    Time Temperature Precipitation Wind Pressure Humidity
    00:00 +18°C° 0 mm 1 mps 608 mmHg 59%
    01:00 +18°C° 0 mm 1 mps 608 mmHg 56%
    02:00 +18°C° 0 mm 1 mps 607 mmHg 54%
    03:00 +18°C° 0 mm 1 mps 607 mmHg 51%
    04:00 +18°C° 0 mm 1 mps 607 mmHg 49%
    05:00 +18°C° 0 mm 1 mps 608 mmHg 49%
    06:00 +19°C° 0 mm 1 mps 608 mmHg 49%
    07:00 +20°C° 0 mm 1 mps 609 mmHg 49%
    08:00 +20°C° 0 mm 2 mps 609 mmHg 46%
    09:00 +23°C° 0 mm 2 mps 610 mmHg 42%
    10:00 +25°C° 0 mm 2 mps 611 mmHg 39%
    11:00 +26°C° 0 mm 2 mps 611 mmHg 37%
    12:00 +27°C° 0 mm 2 mps 611 mmHg 36%
    13:00 +29°C° 0 mm 2 mps 610 mmHg 34%
    14:00 +27°C° 0 mm 2 mps 609 mmHg 40%
    15:00 +26°C° 0 mm 2 mps 609 mmHg 45%
    16:00 +25°C° 0 mm 2 mps 608 mmHg 51%
    17:00 +23°C° 0 mm 2 mps 607 mmHg 57%
    18:00 +22°C° 0 mm 1 mps 607 mmHg 63%
    19:00 +20°C° 0 mm 1 mps 607 mmHg 69%
    20:00 +19°C° 0 mm 1 mps 607 mmHg 72%
    21:00 +19°C° 0 mm 1 mps 608 mmHg 75%
    22:00 +16°C° 0 mm 0 mps 608 mmHg 77%
    23:00 +16°C° 0 mm 0 mps 608 mmHg 75%
    Show more